CST,Max TemperatureF,Mean TemperatureF,Min TemperatureF,Max Dew PointF,MeanDew PointF,Min DewpointF,Max Humidity, Mean Humidity, Min Humidity, Max Sea Level PressureIn, Mean Sea Level PressureIn, Min Sea Level PressureIn, Max VisibilityMiles, Mean VisibilityMiles, Min VisibilityMiles, Max Wind SpeedMPH, Mean Wind SpeedMPH, Max Gust SpeedMPH,PrecipitationIn, CloudCover, Events, WindDirDegrees
2013-1-1,45,40,35,40,37,31,100,88,76,30.23,30.12,30.03,10,7,0,12,4,16,T,8,Fog-Rain,326
2013-1-2,42,35,28,32,30,26,92,77,62,30.31,30.26,30.22,10,7,2,7,3,10,0.00,5,,278
2013-1-3,50,35,20,30,25,19,96,66,36,30.45,30.39,30.30,10,9,2,15,2,19,0.00,0,,30
2013-1-4,51,38,25,32,27,20,100,65,29,30.53,30.43,30.37,10,10,5,8,1,10,0.00,3,,160
2013-1-5,50,40,30,36,33,29,96,78,60,30.36,30.30,30.23,10,7,0,12,2,16,T,6,Fog,147
2013-1-6,59,41,22,35,25,20,100,62,23,30.36,30.31,30.28,10,4,0,13,2,17,0.00,0,Fog,348
2013-1-7,53,37,20,30,24,19,92,61,30,30.41,30.29,30.16,10,9,6,12,3,17,0.00,0,,103
2013-1-8,52,41,30,49,40,29,93,80,66,30.18,30.11,30.03,10,7,1,10,6,14,0.10,8,Rain,65
2013-1-9,56,54,51,54,52,49,100,93,86,30.22,30.15,30.09,10,5,2,20,11,29,0.19,8,Rain,82
2013-1-10,67,57,47,60,54,43,93,78,63,30.10,29.98,29.83,10,4,1,18,9,24,0.05,7,Rain,117
2013-1-11,70,53,35,50,41,35,100,71,42,29.98,29.93,29.83,10,5,0,14,4,20,0.00,1,Fog,101
2013-1-12,71,57,43,67,56,39,100,90,80,29.88,29.77,29.63,10,5,0,16,6,26,0.96,8,Fog-Rain,359
2013-1-13,45,37,28,38,31,20,89,71,53,30.28,30.05,29.81,10,9,6,16,7,22,T,5,Rain,334
2013-1-14,48,36,24,25,20,18,81,59,37,30.38,30.29,30.25,10,10,9,15,6,21,0.00,2,,59
2013-1-15,37,31,24,30,26,19,92,78,63,30.30,30.21,30.13,10,7,1,13,5,17,T,7,Snow,15
2013-1-16,50,37,24,27,19,5,85,51,16,30.24,30.18,30.11,10,10,7,13,4,18,0.00,2,,288
2013-1-17,60,42,23,32,27,21,92,62,31,30.50,30.35,30.23,10,10,9,15,3,21,0.00,0,,15
2013-1-18,57,40,23,32,26,22,100,62,24,30.56,30.45,30.32,10,8,2,10,3,14,0.00,0,,136
2013-1-19,64,45,25,38,32,24,92,66,39,30.31,30.24,30.16,10,9,2,12,2,16,0.00,0,,157
2013-1-20,66,48,29,42,33,28,100,69,37,30.25,30.21,30.11,10,4,0,12,2,13,0.00,0,Fog,111
2013-1-21,55,43,30,38,32,25,100,68,35,30.31,30.23,30.14,10,8,2,15,4,19,0.00,2,,91
2013-1-22,53,40,27,29,25,21,85,61,36,30.39,30.31,30.25,10,10,9,14,5,17,0.00,1,,93
2013-1-23,69,51,33,49,38,28,93,71,48,30.31,30.23,30.14,10,7,1,10,3,14,0.00,3,,105
2013-1-24,52,46,40,48,40,30,96,78,60,30.27,30.20,30.14,10,5,0,18,9,24,0.00,5,Fog,83
2013-1-25,58,48,37,46,40,32,100,81,62,30.22,30.14,30.05,10,4,1,12,3,14,0.00,6,,73
2013-1-26,47,43,39,42,40,37,100,86,71,30.28,30.22,30.19,8,4,2,17,8,24,T,8,Rain,92
2013-1-27,65,54,43,60,49,41,100,92,84,30.18,30.10,29.99,10,3,0,12,6,16,T,7,Fog,101
2013-1-28,72,69,65,65,62,60,93,81,68,30.06,29.99,29.90,10,8,4,14,7,19,T,8,Rain,154
2013-1-29,72,63,53,66,61,51,93,85,76,29.91,29.64,29.46,10,7,1,22,8,33,0.70,8,Rain,193
2013-1-30,53,41,28,50,33,24,100,71,42,30.10,29.86,29.59,10,9,2,23,9,34,0.00,3,,280
2013-1-31,63,43,22,31,25,21,100,60,20,30.32,30.16,30.08,10,9,5,21,5,28,0.00,0,,287